Terug naar catalogus

STARLINK-37076

ActiefCommunicatieVLEO
NORAD 68173·PAYLOAD·🇺🇸 United States

Gelanceerd Mar 14, 2026 vanaf Vandenberg Space Force Base

Loading…

Volgende Passages (komende 24 uur)

TLE

VersSource: CelesTrak SupGP

Epoch: Sep 14, 2026, 21:34 UTC

1 68173C 26050G   26257.89909722 -.00025685  00000+0 -75902-3 0  2576
2 68173  53.1583 104.2034 0001270  83.2321 287.4069 15.34396596    13

Volg STARLINK-37076 in realtime met AllMySat

Download on the App Store